Showing default

BLACK KITE-2, 68474

Orbit data source: Space-Track

BLACK KITE-2, 68474 is a Taiwanese payload satellite in SSO that was launched on Mon, 30 Mar 2026 UTC via an FALCON 9 launch vehicle from the Air Force Western Test Range (AFWTR). Payload-class satellites include a variety of spacecraft equipped with specific instruments for various scientific and technological missions. These include communications satellites like Starlink; space stations such as the ISS; scientific satellites like the Hubble; Earth observation satellites from companies like Planet Labs, Umbra, and HawkEye 360; GPS; miniature CubeSats for education and research; and military/defense satellites.

Loading next visibility...
Identifier
68474, 2026-067BL
Orbit
SSO
Country
Flag of TWTW / TWN
Related business
Manufacturer
RAPTEK
Mission
Operational spacecraft
Bus & Motor
CUBESAT 8U, Unknown motor
Mass
15 kg wet, ~15 kg dry
Launch date (UTC)
2026-03-30 (3 months ago)
Launch vehicle
FALCON 9
Launch site
Air Force Western Test Range (AFWTR)
Object type
Payload
Rocket body
Debris
Shape & HBR
Unknown shape, 14.5 m
Radar Cross Section
Medium (>0.1 m² and <1 m²)

Expand to show TLE details & history
Last TLE update: 2 days ago

TLE from 2 days ago
0 BLACK KITE-2
1 68474U 26067BL  26171.43244306  .00002036  00000-0  20333-3 0  9998
2 68474  97.7550 129.6729 0001092 180.6629 179.4589 14.92594451 12217
Epoch: 2026-06-20T10:22Z
TLE epoch observation values (Epoch: 2026-06-20T10:22:43.080Z)
Latitude
-0.00002°
Longitude
65.34625°
Altitude
593.653 km
Speed
7.563 km/s
True Right ascension
08h 38m 41s
True Declination
0° 00' 00"
Sunlit
Object was in daylight at epoch
Visualization orbit readout
Latitude
Unknown
Longitude
Unknown
Altitude
Unknown
Speed
Unknown
Apparent Right ascension
Unknown
Apparent Declination
Unknown
Sunlit
N/A
Visualization observer readout
Local Sidereal Time
10:44:32
Azimuth
Unknown
Elevation
Unknown
Doppler factor
Unknown
Orbital elements
Apogee altitude
587.628 km
Perigee altitude
586.106 km
Semi-major axis
6,965.004 km
Eccentricity
0.00011
Inclination
97.755°
RAAN
129.6729°
Arg. of periapsis
180.6629°
True anomaly
179.45902°
Mean anomaly
179.4589°
Eccentric anomaly
179.45896°
Mean motion
3.73389 °/min
Orbital period
96.41 mins
BSTAR
0.00020333
Loading maneuver chart data...
Computing Atmospheric mass density...
Loading historical data...
Loading historical data...
Loading historical data...
Loading historical data...
Loading historical data...
Loading historical data...
Loading historical data...

Documentation

Showing up to 5 results
|